Location: Huberhof
(49.2050°N, 7.4980°E)
Time: 00:11:24
(UTC+00:00)

H-2A R/B - Pass Details

Date: 29 October 2020
Orbit: 577 x 656 km, 98.5° (Epoch: 26 November)

Event Time Altitude Azimuth Distance (km) Brightness Sun altitude
Rises 16:59:13 0° 11° (N) 2,847 5.2 -8.1°
Reaches altitude 10° 17:01:25 10° 7° (N) 1,930 4.4 -8.4°
Maximum altitude 17:05:31 57° 289° (WNW) 691 2.7 -9.1°
Drops below altitude 10° 17:09:31 10° 211° (SSW) 1,890 5.2 -9.7°
Sets 17:11:40 0° 207° (SSW) 2,781 6.0 -10.1°
